Location: Byszew
(52.1813°N, 19.2693°E)
Time: 19:06:57
(UTC+00:00)

Cosmos 1805 Rocket - Pass Details

Date: 03 March 2021
Orbit: 605 x 630 km, 82.5° (Epoch: 17 April)

Event Time Altitude Azimuth Distance (km) Brightness Sun altitude
Rises 16:58:35 0° 196° (SSW) 2,876 7.3 -5.7°
Reaches altitude 10° 17:00:48 10° 199° (SSW) 1,980 6.5 -6.1°
Maximum altitude 17:05:10 68° 282° (WNW) 674 4.0 -6.8°
Drops below altitude 10° 17:09:37 10° 7° (N) 2,011 6.1 -7.4°
Sets 17:11:53 0° 10° (N) 2,926 6.9 -7.8°
